Weather in Tamtachet

Russia / Irkutsk Oblast     57°16′26″N   97°43′37″E
temp.,
°C
wind,
m/s
gust,
m/s
humid.,
%
clouds,
%
prec.,
mm/h
press.,
hPa
HPBL,
m
14 may, fri
fri1423:00+5s24510 0.0 101753
02:00+3s25560 0.0 101782
05:00+1se24615 0.0 101674
08:00+6sse484471 0.0 1014385
11:00+12s463189 0.0 1012815
14:00+16ssw462513 0.0 10091490
17:00+18sw5929100 0.0 10062843
20:00+6wnw31090100 2.6 1011993
15 may, sat
sat1523:00+5w5118665 0.2 1013809
02:00+2wsw3118848 0.3 1016377
05:00+1wsw3109087 0.0 1016300
08:00+4wsw41269100 0.0 1015925
11:00+4sw61593100 1.3 10131007
14:00+6wsw71580100 2.2 10101112
17:00+9wsw71675100 0.0 10091351
20:00+11w61479100 0.1 10091284
16 may, sun
sun1623:00+9nw41085100 1.0 1011894
02:00+5n3595100 8.5 1012564
05:00+3nw2692100 1.2 1013272
08:00+3n357396 1.2 1015519
11:00+7nw244971 0.0 10151041
14:00+10wnw2436100 0.0 10141385
17:00+11wnw2334100 0.0 10121468
20:00+9ene1150100 0.0 101148
17 may, mon
mon1723:00+4ne116162 0.0 101011
02:00+4nne1258100 0.0 101046
05:00+3w1159100 0.0 100911
08:00+5w3458100 0.0 1010707
11:00+4w2391100 0.3 1009500
14:00+4w2395100 0.6 1007483
17:00+7wnw237367 0.2 1006907
20:00+7w35695 0.3 1006795
18 may, tue
tue1823:00+3wsw4129194 0.2 1008302
02:00+2w389790 0.4 1009240
05:00−1nw238399 0.0 101049
08:00+2nnw36540 0.0 1012447
11:00+6nw473167 0.0 10112272
14:00+8wnw4725100 0.0 10092935
17:00+9nw4625100 0.0 10082797
20:00+7n3534100 0.0 1008831